Flag for Germany Weather past 2 weeks in Hemer, North Rhine-Westphalia, Germany

Now
55 °F

Sunny.


Feels Like: 53 °F
Forecast: 38 / 47 °F
Wind: 10 mph from Southwest

Location: Dortmund / Wickede


UV Index: 0 (Low)

Visibility: 10 mi


Pressure: 30.18 "Hg

Humidity: 41%

Dew point: 32 °F

Location of HemerLocation

Historic Weather in Hemer

°F

Hemer temperature yesterday

Maximum temperature yesterday: 55 °F (at 2:50 PM)
Minimum temperature yesterday: 30 °F (at 5:20 AM)
Average temperature yesterday: 47 °F

Past Weeks' High & Low Weather Summary

 TemperatureHumidityPressure
High72 °F (Apr 2, 2:20 PM)94% (Apr 5, 5:20 AM)30.45 "Hg (Apr 5, 5:20 AM)
Low30 °F (Apr 16, 5:20 AM)29% (Apr 2, 2:20 PM)29.62 "Hg (Apr 3, 5:20 AM)
Average53 °F66%30.03 "Hg
* Reported Apr 2 11:20 AM — Apr 17 11:20 AM, Hemer, Weather by CustomWeather, © 2014

Note: Actual official high and low records may vary slightly from our data, if they occured in-between our weather recording intervals... More about our weather records

Advertising

Historic Weather Conditions — Data for Previous 24 hours

 ConditionsComfort  
Time TempWeatherWind HumidityBarometerVisibility
11:20 AM
Apr 17
54 °FSunny.10 mph35%30.21 "Hg10 mi
10:50 AM54 °FSunny.13 mph35%30.21 "Hg10 mi
10:20 AM54 °FSunny.14 mph38%30.24 "Hg10 mi
9:50 AM52 °FSunny.14 mph44%30.24 "Hg10 mi
9:20 AM50 °FPassing clouds.12 mph43%30.24 "HgN/A
8:50 AM48 °FPassing clouds.10 mph46%30.24 "HgN/A
8:20 AM46 °FSunny.10 mph50%30.24 "Hg10 mi
7:50 AM45 °FSunny.10 mph49%30.24 "Hg10 mi
7:20 AM43 °FClear.9 mph57%30.24 "Hg10 mi
6:50 AM41 °FClear.8 mph61%30.24 "Hg10 mi
6:20 AM41 °FClear.7 mph61%30.27 "Hg10 mi
5:50 AM41 °FClear.5 mph61%30.27 "Hg10 mi
9:50 PM
Apr 16
48 °FClear.7 mph54%30.33 "Hg10 mi
9:20 PM48 °FSunny.7 mph54%30.33 "Hg10 mi
8:50 PM48 °FSunny.6 mph54%30.36 "Hg10 mi
8:20 PM50 °FSunny.6 mph50%30.33 "Hg10 mi
7:50 PM54 °FPassing clouds.8 mph44%30.33 "HgN/A
7:20 PM55 °FPassing clouds.7 mph41%30.36 "HgN/A
6:50 PM55 °FPassing clouds.7 mph38%30.36 "HgN/A
6:20 PM55 °FPassing clouds.8 mph41%30.36 "HgN/A
5:50 PM55 °FPassing clouds.8 mph41%30.36 "HgN/A
5:20 PM55 °FSunny.8 mph41%30.36 "Hg10 mi
4:50 PM55 °FSunny.7 mph44%30.39 "Hg10 mi
4:20 PM55 °FSunny.6 mph44%30.39 "Hg10 mi
3:50 PM55 °FSunny.6 mph41%30.39 "Hg10 mi
3:20 PM55 °FSunny.5 mph36%30.39 "Hg10 mi
2:50 PM55 °FSunny.6 mph38%30.42 "Hg10 mi
2:20 PM54 °FSunny.5 mph38%30.42 "Hg10 mi
1:50 PM54 °FSunny.5 mph44%30.42 "Hg10 mi
1:20 PM52 °FPassing clouds.7 mph41%30.42 "HgN/A
12:50 PM52 °FPassing clouds.7 mph41%30.42 "HgN/A
12:20 PM50 °FPassing clouds.8 mph43%30.45 "HgN/A
Weather by CustomWeather, © 2014

See weather overview